Home   Weather   Sapporo   Past weeks

Flag for Japan Past Weather in Sapporo, Japan — Yesterday and Last 2 Weeks

Now
25 °F

Snow flurries. Overcast.


Feels Like: 20 °F
Forecast: 9 / 29 °F
Wind: 5 mph from Southeast

Location: Sapporo

Current Time: Jan 18, 2017 at 4:30:15 am

Latest Report: Jan 18, 2017 at 3:00 am


Visibility: 1 mi

Pressure: 30.33 "Hg

Humidity: 70%

Dew Point: 17 °F

Location of SapporoLocation

Past Weather in Sapporo — Graph

°F

Sapporo Temperature Yesterday

Maximum temperature yesterday: 31 °F (at 12:00 pm)
Minimum temperature yesterday: 20 °F (at 7:00 am)
Average temperature yesterday: 27 °F

High & Low Weather Summary for the Past Weeks

 TemperatureHumidityPressure
High38 °F (Jan 7, 1:00 pm)95% (Jan 9, 8:00 pm)30.33 "Hg (Jan 9, 8:00 pm)
Low12 °F (Jan 14, 12:00 am)42% (Jan 13, 11:00 am)29.44 "Hg (Jan 12, 12:00 pm)
Average24 °F71%29.86 "Hg
* Reported Jan 3 2:00 am — Jan 18 2:00 am, Sapporo, Weather by CustomWeather, © 2017

Note: Actual official high and low records may vary slightly from our data, if they occured in-between our weather recording intervals... More about our weather records

Advertising

Sapporo Weather History for the Previous 24 Hours

Scroll right to see more
 ConditionsComfort  
Time TempWeatherWind HumidityBarometerVisibility
2:00 am
Wed, Jan 18
26 °FChilly.7 mph64%30.33 "HgN/A
1:00 am27 °FChilly.5 mph60%30.31 "HgN/A
12:00 am28 °FChilly.3 mph53%30.31 "HgN/A
11:00 pm
Tue, Jan 17
28 °FChilly.2 mph53%30.32 "HgN/A
10:00 pm28 °FChilly.5 mph55%30.31 "HgN/A
9:00 pm28 °FSnow flurries. Overcast.2 mph66%30.31 "Hg9 mi
8:00 pm28 °FChilly.3 mph63%30.30 "HgN/A
7:00 pm29 °FChilly.3 mph53%30.29 "HgN/A
6:00 pm29 °FOvercast.3 mph48%30.29 "Hg12 mi
5:00 pm29 °FChilly.7 mph52%30.27 "HgN/A
4:00 pm30 °FChilly.7 mph50%30.26 "HgN/A
3:00 pm30 °FOvercast.10 mph52%30.26 "Hg12 mi
2:00 pm30 °FChilly.15 mph46%30.24 "HgN/A
1:00 pm30 °FChilly.8 mph50%30.22 "HgN/A
12:00 pm31 °FOvercast.8 mph49%30.22 "Hg12 mi
11:00 am30 °FChilly.3 mph50%30.24 "HgN/A
10:00 am29 °FChilly.3 mph56%30.24 "HgN/A
9:00 am25 °FOvercast.3 mph66%30.23 "Hg12 mi
8:00 am20 °FCold.5 mph75%30.22 "HgN/A
7:00 am20 °FCold.1 mph76%30.19 "HgN/A
6:00 am21 °FPassing clouds.1 mph77%30.18 "Hg12 mi
5:00 am20 °FCold.1 mph80%30.16 "HgN/A
4:00 am22 °FCold.3 mph77%30.15 "HgN/A
Weather by CustomWeather, © 2017

See weather overviewHow to use our weather pages